User: anonymous   Login
Location: Fort Wayne
(41.1310°N, 85.1290°W)
Time: 15:55:55
(UTC-05:00)
Language:

Cosmos 2082 - Orbit

View from above orbital plane
View from above orbital plane
View from above satellite
View from above satellite

Ground track
Ground track

The orbit data is extracted from the following two-line orbital elements,

1 20624U 90046A   17054.53142729 -.00000207  00000-0 -83414-4 0  9998
2 20624  71.0400  92.4542 0016099 209.9568 150.0635 14.14219886381127
Epoch (UTC): 23 February 2017 12:45:15
Eccentricity: 0.0016099
inclination: 71.0400°
perigee height: 833 km
apogee height: 856 km
right ascension of ascending node: 92.4542°
argument of perigee: 209.9568°
revolutions per day: 14.14219886
mean anomaly at epoch: 150.0635°
orbit number at epoch: 38112

The dashed part of the orbit path shows where the satellite is in the earth's shadow,  

DLR